Year,Month,Day,Hour,Minute,Value (Times are PST for temperature in C)
2014,09,30,00,00,13.60
2014,09,30,00,01,13.60
2014,09,30,00,02,13.60
2014,09,30,00,03,13.60
2014,09,30,00,04,13.60
2014,09,30,00,05,13.60
2014,09,30,00,06,13.60
2014,09,30,00,07,13.60
2014,09,30,00,08,13.60
2014,09,30,00,09,13.60
2014,09,30,00,10,13.60
2014,09,30,00,11,13.60
2014,09,30,00,12,13.50
2014,09,30,00,13,13.50
2014,09,30,00,14,13.50
2014,09,30,00,15,13.50
2014,09,30,00,16,13.40
2014,09,30,00,17,13.40
2014,09,30,00,18,13.40
2014,09,30,00,19,13.40
2014,09,30,00,20,13.40
2014,09,30,00,21,13.40
2014,09,30,00,22,13.40
2014,09,30,00,23,13.40
2014,09,30,00,24,13.50
2014,09,30,00,25,13.50
2014,09,30,00,26,13.50
2014,09,30,00,27,13.50
2014,09,30,00,28,13.50
2014,09,30,00,29,13.50
2014,09,30,00,30,13.50
2014,09,30,00,31,13.50
2014,09,30,00,32,13.50
2014,09,30,00,33,13.50
2014,09,30,00,34,13.40
2014,09,30,00,35,13.40
2014,09,30,00,36,13.40
2014,09,30,00,37,13.40
2014,09,30,00,38,13.40
2014,09,30,00,39,13.40
2014,09,30,00,40,13.30
2014,09,30,00,41,13.30
2014,09,30,00,42,13.30
2014,09,30,00,43,13.30
2014,09,30,00,44,13.20
2014,09,30,00,45,13.20
2014,09,30,00,46,13.20
2014,09,30,00,47,13.10
2014,09,30,00,48,13.10
2014,09,30,00,49,13.10
2014,09,30,00,50,13.10
2014,09,30,00,51,13.00
2014,09,30,00,52,13.00
2014,09,30,00,53,12.90
2014,09,30,00,54,12.90
2014,09,30,00,55,12.90
2014,09,30,00,56,12.80
2014,09,30,00,57,12.80
2014,09,30,00,58,12.80
2014,09,30,00,59,12.80
2014,09,30,01,00,12.70
2014,09,30,01,01,12.70
2014,09,30,01,02,12.70
2014,09,30,01,03,12.70
2014,09,30,01,04,12.80
2014,09,30,01,05,12.80
2014,09,30,01,06,12.80
2014,09,30,01,07,12.70
2014,09,30,01,08,12.70
2014,09,30,01,09,12.70
2014,09,30,01,10,12.70
2014,09,30,01,11,12.70
2014,09,30,01,12,12.70
2014,09,30,01,13,12.70
2014,09,30,01,14,12.70
2014,09,30,01,15,12.70
2014,09,30,01,16,12.80
2014,09,30,01,17,12.80
2014,09,30,01,18,12.80
2014,09,30,01,19,12.80
2014,09,30,01,20,12.80
2014,09,30,01,21,12.80
2014,09,30,01,22,12.80
2014,09,30,01,23,12.80
2014,09,30,01,24,12.80
2014,09,30,01,25,12.90
2014,09,30,01,26,12.90
2014,09,30,01,27,12.90
2014,09,30,01,28,12.90
2014,09,30,01,29,12.90
2014,09,30,01,30,12.90
2014,09,30,01,31,12.90
2014,09,30,01,32,12.90
2014,09,30,01,33,12.90
2014,09,30,01,34,12.90
2014,09,30,01,35,12.90
2014,09,30,01,36,12.80
2014,09,30,01,37,12.80
2014,09,30,01,38,12.80
2014,09,30,01,39,12.70
2014,09,30,01,40,12.70
2014,09,30,01,41,12.70
2014,09,30,01,42,12.70
2014,09,30,01,43,12.70
2014,09,30,01,44,12.70
2014,09,30,01,45,12.70
2014,09,30,01,46,12.70
2014,09,30,01,47,12.70
2014,09,30,01,48,12.60
2014,09,30,01,49,12.60
2014,09,30,01,50,12.60
2014,09,30,01,51,12.50
2014,09,30,01,52,12.50
2014,09,30,01,53,12.40
2014,09,30,01,54,12.40
2014,09,30,01,55,12.30
2014,09,30,01,56,12.30
2014,09,30,01,57,12.30
2014,09,30,01,58,12.30
2014,09,30,01,59,12.30
2014,09,30,02,00,12.30
2014,09,30,02,01,12.20
2014,09,30,02,02,12.20
2014,09,30,02,03,12.20
2014,09,30,02,04,12.20
2014,09,30,02,05,12.10
2014,09,30,02,06,12.10
2014,09,30,02,07,12.10
2014,09,30,02,08,12.00
2014,09,30,02,09,12.00
2014,09,30,02,10,12.00
2014,09,30,02,11,12.00
2014,09,30,02,12,12.00
2014,09,30,02,13,12.00
2014,09,30,02,14,11.90
2014,09,30,02,15,11.90
2014,09,30,02,16,11.90
2014,09,30,02,17,11.90
2014,09,30,02,18,11.90
2014,09,30,02,19,11.90
2014,09,30,02,20,11.90
2014,09,30,02,21,11.90
2014,09,30,02,22,11.90
2014,09,30,02,23,11.90
2014,09,30,02,24,11.90
2014,09,30,02,25,11.90
2014,09,30,02,26,11.90
2014,09,30,02,27,11.90
2014,09,30,02,28,11.90
2014,09,30,02,29,11.90
2014,09,30,02,30,11.90
2014,09,30,02,31,11.90
2014,09,30,02,32,11.90
2014,09,30,02,33,11.90
2014,09,30,02,34,11.90
2014,09,30,02,35,12.00
2014,09,30,02,36,12.10
2014,09,30,02,37,12.20
2014,09,30,02,38,12.20
2014,09,30,02,39,12.30
2014,09,30,02,40,12.30
2014,09,30,02,41,12.40
2014,09,30,02,42,12.40
2014,09,30,02,43,12.40
2014,09,30,02,44,12.50
2014,09,30,02,45,12.50
2014,09,30,02,46,12.50
2014,09,30,02,47,12.50
2014,09,30,02,48,12.50
2014,09,30,02,49,12.50
2014,09,30,02,50,12.60
2014,09,30,02,51,12.60
2014,09,30,02,52,12.60
2014,09,30,02,53,12.60
2014,09,30,02,54,12.70
2014,09,30,02,55,12.70
2014,09,30,02,56,12.70
2014,09,30,02,57,12.70
2014,09,30,02,58,12.70
2014,09,30,02,59,12.70
2014,09,30,03,00,12.70
2014,09,30,03,01,12.70
2014,09,30,03,02,12.70
2014,09,30,03,03,12.60
2014,09,30,03,04,12.60
2014,09,30,03,05,12.50
2014,09,30,03,06,12.50
2014,09,30,03,07,12.40
2014,09,30,03,08,12.40
2014,09,30,03,09,12.30
2014,09,30,03,10,12.30
2014,09,30,03,11,12.30
2014,09,30,03,12,12.30
2014,09,30,03,13,12.40
2014,09,30,03,14,12.40
2014,09,30,03,15,12.40
2014,09,30,03,16,12.50
2014,09,30,03,17,12.40
2014,09,30,03,18,12.40
2014,09,30,03,19,12.30
2014,09,30,03,20,12.30
2014,09,30,03,21,12.30
2014,09,30,03,22,12.20
2014,09,30,03,23,12.10
2014,09,30,03,24,12.10
2014,09,30,03,25,12.10
2014,09,30,03,26,12.10
2014,09,30,03,27,12.10
2014,09,30,03,28,12.10
2014,09,30,03,29,12.10
2014,09,30,03,30,12.10
2014,09,30,03,31,12.10
2014,09,30,03,32,12.10
2014,09,30,03,33,12.10
2014,09,30,03,34,12.10
2014,09,30,03,35,12.10
2014,09,30,03,36,12.10
2014,09,30,03,37,12.20
2014,09,30,03,38,12.20
2014,09,30,03,39,12.20
2014,09,30,03,40,12.20
2014,09,30,03,41,12.20
2014,09,30,03,42,12.20
2014,09,30,03,43,12.30
2014,09,30,03,44,12.30
2014,09,30,03,45,12.40
2014,09,30,03,46,12.40
2014,09,30,03,47,12.40
2014,09,30,03,48,12.40
2014,09,30,03,49,12.40
2014,09,30,03,50,12.50
2014,09,30,03,51,12.50
2014,09,30,03,52,12.50
2014,09,30,03,53,12.60
2014,09,30,03,54,12.60
2014,09,30,03,55,12.70
2014,09,30,03,56,12.70
2014,09,30,03,57,12.80
2014,09,30,03,58,12.80
2014,09,30,03,59,12.80
2014,09,30,04,00,12.80
2014,09,30,04,01,12.80
2014,09,30,04,02,12.80
2014,09,30,04,03,12.80
2014,09,30,04,04,12.80
2014,09,30,04,05,12.80
2014,09,30,04,06,12.80
2014,09,30,04,07,12.80
2014,09,30,04,08,12.80
2014,09,30,04,09,12.80
2014,09,30,04,10,12.80
2014,09,30,04,11,12.80
2014,09,30,04,12,12.80
2014,09,30,04,13,12.80
2014,09,30,04,14,12.80
2014,09,30,04,15,12.80
2014,09,30,04,16,12.70
2014,09,30,04,17,12.70
2014,09,30,04,18,12.70
2014,09,30,04,19,12.60
2014,09,30,04,20,12.50
2014,09,30,04,21,12.50
2014,09,30,04,22,12.40
2014,09,30,04,23,12.40
2014,09,30,04,24,12.40
2014,09,30,04,25,12.40
2014,09,30,04,26,12.40
2014,09,30,04,27,12.40
2014,09,30,04,28,12.40
2014,09,30,04,29,12.30
2014,09,30,04,30,12.30
2014,09,30,04,31,12.20
2014,09,30,04,32,12.20
2014,09,30,04,33,12.10
2014,09,30,04,34,12.10
2014,09,30,04,35,12.00
2014,09,30,04,36,12.00
2014,09,30,04,37,12.00
2014,09,30,04,38,11.90
2014,09,30,04,39,11.90
2014,09,30,04,40,11.90
2014,09,30,04,41,11.90
2014,09,30,04,42,11.90
2014,09,30,04,43,11.90
2014,09,30,04,44,11.80
2014,09,30,04,45,11.80
2014,09,30,04,46,11.80
2014,09,30,04,47,11.80
2014,09,30,04,48,11.80
2014,09,30,04,49,11.80
2014,09,30,04,50,11.80
2014,09,30,04,51,11.80
2014,09,30,04,52,11.80
2014,09,30,04,53,11.80
2014,09,30,04,54,11.80
2014,09,30,04,55,11.80
2014,09,30,04,56,11.80
2014,09,30,04,57,11.70
2014,09,30,04,58,11.70
2014,09,30,04,59,11.70
2014,09,30,05,00,11.70
2014,09,30,05,01,11.70
2014,09,30,05,02,11.70
2014,09,30,05,03,11.70
2014,09,30,05,04,11.70
2014,09,30,05,05,11.70
2014,09,30,05,06,11.70
2014,09,30,05,07,11.70
2014,09,30,05,08,11.70
2014,09,30,05,09,11.70
2014,09,30,05,10,11.70
2014,09,30,05,11,11.60
2014,09,30,05,12,11.60
2014,09,30,05,13,11.60
2014,09,30,05,14,11.50
2014,09,30,05,15,11.50
2014,09,30,05,16,11.50
2014,09,30,05,17,11.50
2014,09,30,05,18,11.40
2014,09,30,05,19,11.40
2014,09,30,05,20,11.40
2014,09,30,05,21,11.40
2014,09,30,05,22,11.30
2014,09,30,05,23,11.30
2014,09,30,05,24,11.40
2014,09,30,05,25,11.40
2014,09,30,05,26,11.40
2014,09,30,05,27,11.40
2014,09,30,05,28,11.40
2014,09,30,05,29,11.40
2014,09,30,05,30,11.40
2014,09,30,05,31,11.40
2014,09,30,05,32,11.40
2014,09,30,05,33,11.40
2014,09,30,05,34,11.40
2014,09,30,05,35,11.40
2014,09,30,05,36,11.40
2014,09,30,05,37,11.50
2014,09,30,05,38,11.50
2014,09,30,05,39,11.50
2014,09,30,05,40,11.50
2014,09,30,05,41,11.50
2014,09,30,05,42,11.50
2014,09,30,05,43,11.40
2014,09,30,05,44,11.40
2014,09,30,05,45,11.40
2014,09,30,05,46,11.40
2014,09,30,05,47,11.40
2014,09,30,05,48,11.40
2014,09,30,05,49,11.30
2014,09,30,05,50,11.40
2014,09,30,05,51,11.40
2014,09,30,05,52,11.40
2014,09,30,05,53,11.40
2014,09,30,05,54,11.40
2014,09,30,05,55,11.40
2014,09,30,05,56,11.40
2014,09,30,05,57,11.40
2014,09,30,05,58,11.50
2014,09,30,05,59,11.50
2014,09,30,06,00,11.50
2014,09,30,06,01,11.60
2014,09,30,06,02,11.60
2014,09,30,06,03,11.70
2014,09,30,06,04,11.70
2014,09,30,06,05,11.70
2014,09,30,06,06,11.80
2014,09,30,06,07,11.80
2014,09,30,06,08,11.80
2014,09,30,06,09,11.80
2014,09,30,06,10,11.80
2014,09,30,06,11,11.80
2014,09,30,06,12,11.70
2014,09,30,06,13,11.70
2014,09,30,06,14,11.70
2014,09,30,06,15,11.60
2014,09,30,06,16,11.60
2014,09,30,06,17,11.50
2014,09,30,06,18,11.50
2014,09,30,06,19,11.50
2014,09,30,06,20,11.50
2014,09,30,06,21,11.50
2014,09,30,06,22,11.50
2014,09,30,06,23,11.40
2014,09,30,06,24,11.40
2014,09,30,06,25,11.40
2014,09,30,06,26,11.30
2014,09,30,06,27,11.30
2014,09,30,06,28,11.30
2014,09,30,06,29,11.30
2014,09,30,06,30,11.40
2014,09,30,06,31,11.40
2014,09,30,06,32,11.40
2014,09,30,06,33,11.40
2014,09,30,06,34,11.40
2014,09,30,06,35,11.40
2014,09,30,06,36,11.40
2014,09,30,06,37,11.40
2014,09,30,06,38,11.40
2014,09,30,06,39,11.40
2014,09,30,06,40,11.50
2014,09,30,06,41,11.50
2014,09,30,06,42,11.40
2014,09,30,06,43,11.40
2014,09,30,06,44,11.30
2014,09,30,06,45,11.30
2014,09,30,06,46,11.20
2014,09,30,06,47,11.20
2014,09,30,06,48,11.20
2014,09,30,06,49,11.10
2014,09,30,06,50,11.10
2014,09,30,06,51,11.10
2014,09,30,06,52,11.10
2014,09,30,06,53,11.00
2014,09,30,06,54,11.00
2014,09,30,06,55,11.00
2014,09,30,06,56,11.00
2014,09,30,06,57,10.90
2014,09,30,06,58,10.90
2014,09,30,06,59,10.90
2014,09,30,07,00,10.90
2014,09,30,07,01,10.80
2014,09,30,07,02,10.80
2014,09,30,07,03,10.80
2014,09,30,07,04,10.80
2014,09,30,07,05,10.70
2014,09,30,07,06,10.70
2014,09,30,07,07,10.70
2014,09,30,07,08,10.70
2014,09,30,07,09,10.70
2014,09,30,07,10,10.70
2014,09,30,07,11,10.70
2014,09,30,07,12,10.70
2014,09,30,07,13,10.70
2014,09,30,07,14,10.70
2014,09,30,07,15,10.70
2014,09,30,07,16,10.70
2014,09,30,07,17,10.70
2014,09,30,07,18,10.70
2014,09,30,07,19,10.70
2014,09,30,07,20,10.60
2014,09,30,07,21,10.60
2014,09,30,07,22,10.60
2014,09,30,07,23,10.50
2014,09,30,07,24,10.50
2014,09,30,07,25,10.50
2014,09,30,07,26,10.40
2014,09,30,07,27,10.40
2014,09,30,07,28,10.40
2014,09,30,07,29,10.40
2014,09,30,07,30,10.30
2014,09,30,07,31,10.30
2014,09,30,07,32,10.30
2014,09,30,07,33,10.30
2014,09,30,07,34,10.30
2014,09,30,07,35,10.20
2014,09,30,07,36,10.20
2014,09,30,07,37,10.20
2014,09,30,07,38,10.20
2014,09,30,07,39,10.20
2014,09,30,07,40,10.20
2014,09,30,07,41,10.20
2014,09,30,07,42,10.20
2014,09,30,07,43,10.20
2014,09,30,07,44,10.20
2014,09,30,07,45,10.20
2014,09,30,07,46,10.20
2014,09,30,07,47,10.20
2014,09,30,07,48,10.10
2014,09,30,07,49,10.20
2014,09,30,07,50,10.20
2014,09,30,07,51,10.20
2014,09,30,07,52,10.20
2014,09,30,07,53,10.20
2014,09,30,07,54,10.20
2014,09,30,07,55,10.20
2014,09,30,07,56,10.20
2014,09,30,07,57,10.30
2014,09,30,07,58,10.30
2014,09,30,07,59,10.30
2014,09,30,08,00,10.40
2014,09,30,08,01,10.50
2014,09,30,08,02,10.50
2014,09,30,08,03,10.60
2014,09,30,08,04,10.70
2014,09,30,08,05,10.70
2014,09,30,08,06,10.80
2014,09,30,08,07,10.80
2014,09,30,08,08,10.80
2014,09,30,08,09,10.80
2014,09,30,08,10,10.90
2014,09,30,08,11,10.90
2014,09,30,08,12,11.00
2014,09,30,08,13,11.00
2014,09,30,08,14,11.00
2014,09,30,08,15,11.10
2014,09,30,08,16,11.10
2014,09,30,08,17,11.20
2014,09,30,08,18,11.20
2014,09,30,08,19,11.30
2014,09,30,08,20,11.40
2014,09,30,08,21,11.40
2014,09,30,08,22,11.50
2014,09,30,08,23,11.50
2014,09,30,08,24,11.60
2014,09,30,08,25,11.70
2014,09,30,08,26,11.70
2014,09,30,08,27,11.80
2014,09,30,08,28,11.90
2014,09,30,08,29,12.00
2014,09,30,08,30,12.10
2014,09,30,08,31,12.20
2014,09,30,08,32,12.20
2014,09,30,08,33,12.30
2014,09,30,08,34,12.40
2014,09,30,08,35,12.50
2014,09,30,08,36,12.60
2014,09,30,08,37,12.70
2014,09,30,08,38,12.80
2014,09,30,08,39,12.80
2014,09,30,08,40,12.90
2014,09,30,08,41,13.00
2014,09,30,08,42,13.10
2014,09,30,08,43,13.10
2014,09,30,08,44,13.20
2014,09,30,08,45,13.30
2014,09,30,08,46,13.40
2014,09,30,08,47,13.40
2014,09,30,08,48,13.40
2014,09,30,08,49,13.50
2014,09,30,08,50,13.50
2014,09,30,08,51,13.50
2014,09,30,08,52,13.50
2014,09,30,08,53,13.60
2014,09,30,08,54,13.60
2014,09,30,08,55,13.60
2014,09,30,08,56,13.60
2014,09,30,08,57,13.50
2014,09,30,08,58,13.50
2014,09,30,08,59,13.60
2014,09,30,09,00,13.60
2014,09,30,09,01,13.60
2014,09,30,09,02,13.60
2014,09,30,09,03,13.60
2014,09,30,09,04,13.70
2014,09,30,09,05,13.70
2014,09,30,09,06,13.80
2014,09,30,09,07,13.80
2014,09,30,09,08,13.80
2014,09,30,09,09,13.80
2014,09,30,09,10,13.90
2014,09,30,09,11,13.90
2014,09,30,09,12,13.90
2014,09,30,09,13,13.80
2014,09,30,09,14,13.80
2014,09,30,09,15,13.80
2014,09,30,09,16,13.80
2014,09,30,09,17,13.80
2014,09,30,09,18,13.80
2014,09,30,09,19,13.80
2014,09,30,09,20,13.80
2014,09,30,09,21,13.80
2014,09,30,09,22,13.80
2014,09,30,09,23,13.80
2014,09,30,09,24,13.80
2014,09,30,09,25,13.90
2014,09,30,09,26,13.90
2014,09,30,09,27,13.90
2014,09,30,09,28,13.90
2014,09,30,09,29,14.00
2014,09,30,09,30,14.00
2014,09,30,09,31,14.10
2014,09,30,09,32,14.10
2014,09,30,09,33,14.20
2014,09,30,09,34,14.20
2014,09,30,09,35,14.30
2014,09,30,09,36,14.40
2014,09,30,09,37,14.50
2014,09,30,09,38,14.60
2014,09,30,09,39,14.70
2014,09,30,09,40,14.80
2014,09,30,09,41,14.90
2014,09,30,09,42,15.00
2014,09,30,09,43,15.00
2014,09,30,09,44,15.10
2014,09,30,09,45,15.20
2014,09,30,09,46,15.20
2014,09,30,09,47,15.30
2014,09,30,09,48,15.30
2014,09,30,09,49,15.40
2014,09,30,09,50,15.40
2014,09,30,09,51,15.50
2014,09,30,09,52,15.60
2014,09,30,09,53,15.70
2014,09,30,09,54,15.70
2014,09,30,09,55,15.70
2014,09,30,09,56,15.80
2014,09,30,09,57,15.80
2014,09,30,09,58,15.80
2014,09,30,09,59,15.80
2014,09,30,10,00,15.80
2014,09,30,10,01,15.80
2014,09,30,10,02,15.90
2014,09,30,10,03,15.90
2014,09,30,10,04,16.00
2014,09,30,10,05,16.00
2014,09,30,10,06,16.10
2014,09,30,10,07,16.10
2014,09,30,10,08,16.10
2014,09,30,10,09,16.20
2014,09,30,10,10,16.20
2014,09,30,10,11,16.20
2014,09,30,10,12,16.20
2014,09,30,10,13,16.20
2014,09,30,10,14,16.30
2014,09,30,10,15,16.30
2014,09,30,10,16,16.30
2014,09,30,10,17,16.30
2014,09,30,10,18,16.30
2014,09,30,10,19,16.30
2014,09,30,10,20,16.30
2014,09,30,10,21,16.30
2014,09,30,10,22,16.30
2014,09,30,10,23,16.30
2014,09,30,10,24,16.30
2014,09,30,10,25,16.30
2014,09,30,10,26,16.30
2014,09,30,10,27,16.30
2014,09,30,10,28,16.30
2014,09,30,10,29,16.30
2014,09,30,10,30,16.30
2014,09,30,10,31,16.40
2014,09,30,10,32,16.40
2014,09,30,10,33,16.40
2014,09,30,10,34,16.40
2014,09,30,10,35,16.40
2014,09,30,10,36,16.30
2014,09,30,10,37,16.30
2014,09,30,10,38,16.30
2014,09,30,10,39,16.30
2014,09,30,10,40,16.30
2014,09,30,10,41,16.30
2014,09,30,10,42,16.40
2014,09,30,10,43,16.40
2014,09,30,10,44,16.40
2014,09,30,10,45,16.50
2014,09,30,10,46,16.50
2014,09,30,10,47,16.50
2014,09,30,10,48,16.50
2014,09,30,10,49,16.60
2014,09,30,10,50,16.60
2014,09,30,10,51,16.70
2014,09,30,10,52,16.70
2014,09,30,10,53,16.80
2014,09,30,10,54,16.90
2014,09,30,10,55,16.90
2014,09,30,10,56,16.90
2014,09,30,10,57,16.90
2014,09,30,10,58,16.90
2014,09,30,10,59,17.00
2014,09,30,11,00,17.00
2014,09,30,11,01,17.00
2014,09,30,11,02,16.90
2014,09,30,11,03,17.00
2014,09,30,11,04,17.00
2014,09,30,11,05,17.00
2014,09,30,11,06,17.00
2014,09,30,11,07,17.00
2014,09,30,11,08,17.00
2014,09,30,11,09,17.00
2014,09,30,11,10,17.10
2014,09,30,11,11,17.20
2014,09,30,11,12,17.20
2014,09,30,11,13,17.30
2014,09,30,11,14,17.30
2014,09,30,11,15,17.30
2014,09,30,11,16,17.20
2014,09,30,11,17,17.20
2014,09,30,11,18,17.20
2014,09,30,11,19,17.10
2014,09,30,11,20,17.10
2014,09,30,11,21,17.10
2014,09,30,11,22,17.10
2014,09,30,11,23,17.10
2014,09,30,11,24,17.10
2014,09,30,11,25,17.20
2014,09,30,11,26,17.20
2014,09,30,11,27,17.30
2014,09,30,11,28,17.30
2014,09,30,11,29,17.30
2014,09,30,11,30,17.40
2014,09,30,11,31,17.40
2014,09,30,11,32,17.50
2014,09,30,11,33,17.60
2014,09,30,11,34,17.60
2014,09,30,11,35,17.60
2014,09,30,11,36,17.60
2014,09,30,11,37,17.60
2014,09,30,11,38,17.50
2014,09,30,11,39,17.50
2014,09,30,11,40,17.40
2014,09,30,11,41,17.20
2014,09,30,11,42,17.20
2014,09,30,11,43,17.10
2014,09,30,11,44,17.00
2014,09,30,11,45,17.00
2014,09,30,11,46,17.10
2014,09,30,11,47,17.10
2014,09,30,11,48,17.20
2014,09,30,11,49,17.30
2014,09,30,11,50,17.40
2014,09,30,11,51,17.40
2014,09,30,11,52,17.30
2014,09,30,11,53,17.30
2014,09,30,11,54,17.30
2014,09,30,11,55,17.20
2014,09,30,11,56,17.20
2014,09,30,11,57,17.20
2014,09,30,11,58,17.10
2014,09,30,11,59,17.10
2014,09,30,12,00,17.20
2014,09,30,12,01,17.30
2014,09,30,12,02,17.40
2014,09,30,12,03,17.40
2014,09,30,12,04,17.40
2014,09,30,12,05,17.40
2014,09,30,12,06,17.40
2014,09,30,12,07,17.40
2014,09,30,12,08,17.50
2014,09,30,12,09,17.50
2014,09,30,12,10,17.50
2014,09,30,12,11,17.50
2014,09,30,12,12,17.50
2014,09,30,12,13,17.50
2014,09,30,12,14,17.50
2014,09,30,12,15,17.40
2014,09,30,12,16,17.40
2014,09,30,12,17,17.40
2014,09,30,12,18,17.50
2014,09,30,12,19,17.60
2014,09,30,12,20,17.70
2014,09,30,12,21,17.80
2014,09,30,12,22,17.80
2014,09,30,12,23,17.80
2014,09,30,12,24,17.80
2014,09,30,12,25,17.80
2014,09,30,12,26,17.70
2014,09,30,12,27,17.70
2014,09,30,12,28,17.60
2014,09,30,12,29,17.60
2014,09,30,12,30,17.60
2014,09,30,12,31,17.60
2014,09,30,12,32,17.50
2014,09,30,12,33,17.50
2014,09,30,12,34,17.60
2014,09,30,12,35,17.60
2014,09,30,12,36,17.70
2014,09,30,12,37,17.70
2014,09,30,12,38,17.60
2014,09,30,12,39,17.60
2014,09,30,12,40,17.60
2014,09,30,12,41,17.60
2014,09,30,12,42,17.60
2014,09,30,12,43,17.60
2014,09,30,12,44,17.60
2014,09,30,12,45,17.60
2014,09,30,12,46,17.60
2014,09,30,12,47,17.60
2014,09,30,12,48,17.70
2014,09,30,12,49,17.70
2014,09,30,12,50,17.70
2014,09,30,12,51,17.70
2014,09,30,12,52,17.80
2014,09,30,12,53,17.80
2014,09,30,12,54,17.90
2014,09,30,12,55,18.00
2014,09,30,12,56,18.20
2014,09,30,12,57,18.40
2014,09,30,12,58,18.40
2014,09,30,12,59,18.40
2014,09,30,13,00,18.40
2014,09,30,13,01,18.30
2014,09,30,13,02,18.20
2014,09,30,13,03,18.20
2014,09,30,13,04,18.20
2014,09,30,13,05,18.20
2014,09,30,13,06,18.20
2014,09,30,13,07,18.10
2014,09,30,13,08,18.10
2014,09,30,13,09,18.10
2014,09,30,13,10,18.00
2014,09,30,13,11,18.00
2014,09,30,13,12,18.00
2014,09,30,13,13,18.00
2014,09,30,13,14,18.00
2014,09,30,13,15,18.00
2014,09,30,13,16,18.00
2014,09,30,13,17,18.00
2014,09,30,13,18,18.00
2014,09,30,13,19,17.90
2014,09,30,13,20,17.90
2014,09,30,13,21,17.90
2014,09,30,13,22,17.90
2014,09,30,13,23,17.90
2014,09,30,13,24,17.90
2014,09,30,13,25,17.80
2014,09,30,13,26,17.80
2014,09,30,13,27,17.80
2014,09,30,13,28,17.80
2014,09,30,13,29,17.80
2014,09,30,13,30,17.80
2014,09,30,13,31,17.70
2014,09,30,13,32,17.70
2014,09,30,13,33,17.70
2014,09,30,13,34,17.70
2014,09,30,13,35,17.70
2014,09,30,13,36,17.70
2014,09,30,13,37,17.60
2014,09,30,13,38,17.60
2014,09,30,13,39,17.60
2014,09,30,13,40,17.50
2014,09,30,13,41,17.50
2014,09,30,13,42,17.40
2014,09,30,13,43,17.40
2014,09,30,13,44,17.40
2014,09,30,13,45,17.30
2014,09,30,13,46,17.30
2014,09,30,13,47,17.30
2014,09,30,13,48,17.30
2014,09,30,13,49,17.30
2014,09,30,13,50,17.30
2014,09,30,13,51,17.30
2014,09,30,13,52,17.30
2014,09,30,13,53,17.30
2014,09,30,13,54,17.30
2014,09,30,13,55,17.30
2014,09,30,13,56,17.40
2014,09,30,13,57,17.40
2014,09,30,13,58,17.40
2014,09,30,13,59,17.50
2014,09,30,14,00,17.50
2014,09,30,14,01,17.60
2014,09,30,14,02,17.60
2014,09,30,14,03,17.70
2014,09,30,14,04,17.80
2014,09,30,14,05,17.90
2014,09,30,14,06,18.10
2014,09,30,14,07,18.20
2014,09,30,14,08,18.30
2014,09,30,14,09,18.40
2014,09,30,14,10,18.30
2014,09,30,14,11,18.30
2014,09,30,14,12,18.20
2014,09,30,14,13,18.10
2014,09,30,14,14,18.00
2014,09,30,14,15,18.00
2014,09,30,14,16,17.90
2014,09,30,14,17,17.90
2014,09,30,14,18,17.80
2014,09,30,14,19,17.70
2014,09,30,14,20,17.60
2014,09,30,14,21,17.50
2014,09,30,14,22,17.50
2014,09,30,14,23,17.40
2014,09,30,14,24,17.40
2014,09,30,14,25,17.30
2014,09,30,14,26,17.30
2014,09,30,14,27,17.30
2014,09,30,14,28,17.20
2014,09,30,14,29,17.20
2014,09,30,14,30,17.20
2014,09,30,14,31,17.20
2014,09,30,14,32,17.30
2014,09,30,14,33,17.20
2014,09,30,14,34,17.20
2014,09,30,14,35,17.20
2014,09,30,14,36,17.20
2014,09,30,14,37,17.20
2014,09,30,14,38,17.20
2014,09,30,14,39,17.20
2014,09,30,14,40,17.20
2014,09,30,14,41,17.20
2014,09,30,14,42,17.10
2014,09,30,14,43,17.10
2014,09,30,14,44,17.10
2014,09,30,14,45,17.10
2014,09,30,14,46,17.10
2014,09,30,14,47,17.10
2014,09,30,14,48,17.10
2014,09,30,14,49,17.10
2014,09,30,14,50,17.10
2014,09,30,14,51,17.20
2014,09,30,14,52,17.20
2014,09,30,14,53,17.20
2014,09,30,14,54,17.20
2014,09,30,14,55,17.20
2014,09,30,14,56,17.20
2014,09,30,14,57,17.20
2014,09,30,14,58,17.20
2014,09,30,14,59,17.20
2014,09,30,15,00,17.30
2014,09,30,15,01,17.30
2014,09,30,15,02,17.30
2014,09,30,15,03,17.30
2014,09,30,15,04,17.30
2014,09,30,15,05,17.30
2014,09,30,15,06,17.30
2014,09,30,15,07,17.30
2014,09,30,15,08,17.40
2014,09,30,15,09,17.40
2014,09,30,15,10,17.40
2014,09,30,15,11,17.40
2014,09,30,15,12,17.40
2014,09,30,15,13,17.40
2014,09,30,15,14,17.40
2014,09,30,15,15,17.50
2014,09,30,15,16,17.50
2014,09,30,15,17,17.60
2014,09,30,15,18,17.70
2014,09,30,15,19,17.70
2014,09,30,15,20,17.70
2014,09,30,15,21,17.60
2014,09,30,15,22,17.50
2014,09,30,15,23,17.40
2014,09,30,15,24,17.30
2014,09,30,15,25,17.30
2014,09,30,15,26,17.30
2014,09,30,15,27,17.30
2014,09,30,15,28,17.30
2014,09,30,15,29,17.30
2014,09,30,15,30,17.30
2014,09,30,15,31,17.30
2014,09,30,15,32,17.30
2014,09,30,15,33,17.30
2014,09,30,15,34,17.30
2014,09,30,15,35,17.30
2014,09,30,15,36,17.30
2014,09,30,15,37,17.30
2014,09,30,15,38,17.30
2014,09,30,15,39,17.20
2014,09,30,15,40,17.10
2014,09,30,15,41,17.00
2014,09,30,15,42,16.90
2014,09,30,15,43,16.80
2014,09,30,15,44,16.60
2014,09,30,15,45,16.50
2014,09,30,15,46,16.40
2014,09,30,15,47,16.20
2014,09,30,15,48,16.10
2014,09,30,15,49,16.00
2014,09,30,15,50,15.90
2014,09,30,15,51,15.80
2014,09,30,15,52,15.70
2014,09,30,15,53,15.70
2014,09,30,15,54,15.60
2014,09,30,15,55,15.60
2014,09,30,15,56,15.50
2014,09,30,15,57,15.50
2014,09,30,15,58,15.40
2014,09,30,15,59,15.40
2014,09,30,16,00,15.40
2014,09,30,16,01,15.30
2014,09,30,16,02,15.30
2014,09,30,16,03,15.30
2014,09,30,16,04,15.30
2014,09,30,16,05,15.30
2014,09,30,16,06,15.30
2014,09,30,16,07,15.30
2014,09,30,16,08,15.30
2014,09,30,16,09,15.30
2014,09,30,16,10,15.30
2014,09,30,16,11,15.30
2014,09,30,16,12,15.30
2014,09,30,16,13,15.30
2014,09,30,16,14,15.30
2014,09,30,16,15,15.30
2014,09,30,16,16,15.30
2014,09,30,16,17,15.30
2014,09,30,16,18,15.30
2014,09,30,16,19,15.30
2014,09,30,16,20,15.30
2014,09,30,16,21,15.30
2014,09,30,16,22,15.30
2014,09,30,16,23,15.30
2014,09,30,16,24,15.40
2014,09,30,16,25,15.40
2014,09,30,16,26,15.40
2014,09,30,16,27,15.40
2014,09,30,16,28,15.40
2014,09,30,16,29,15.50
2014,09,30,16,30,15.50
2014,09,30,16,31,15.50
2014,09,30,16,32,15.50
2014,09,30,16,33,15.60
2014,09,30,16,34,15.60
2014,09,30,16,35,15.60
2014,09,30,16,36,15.60
2014,09,30,16,37,15.70
2014,09,30,16,38,15.70
2014,09,30,16,39,15.70
2014,09,30,16,40,15.70
2014,09,30,16,41,15.70
2014,09,30,16,42,15.70
2014,09,30,16,43,15.70
2014,09,30,16,44,15.70
2014,09,30,16,45,15.70
2014,09,30,16,46,15.70
2014,09,30,16,47,15.70
2014,09,30,16,48,15.70
2014,09,30,16,49,15.70
2014,09,30,16,50,15.70
2014,09,30,16,51,15.70
2014,09,30,16,52,15.70
2014,09,30,16,53,15.70
2014,09,30,16,54,15.70
2014,09,30,16,55,15.60
2014,09,30,16,56,15.60
2014,09,30,16,57,15.60
2014,09,30,16,58,15.60
2014,09,30,16,59,15.60
2014,09,30,17,00,15.60
2014,09,30,17,01,15.60
2014,09,30,17,02,15.60
2014,09,30,17,03,15.60
2014,09,30,17,04,15.60
2014,09,30,17,05,15.50
2014,09,30,17,06,15.50
2014,09,30,17,07,15.50
2014,09,30,17,08,15.50
2014,09,30,17,09,15.50
2014,09,30,17,10,15.50
2014,09,30,17,11,15.50
2014,09,30,17,12,15.50
2014,09,30,17,13,15.50
2014,09,30,17,14,15.50
2014,09,30,17,15,15.50
2014,09,30,17,16,15.50
2014,09,30,17,17,15.50
2014,09,30,17,18,15.50
2014,09,30,17,19,15.60